Regional Weather Roundup
Issued by NWS

Home | Current Version | Previous Version | Graphics & Text | Print | Product List | Glossary On
Versions: 1 2 3 4 5 6 7 8 9 10 11 12 13 14 15 16 17 18 19 20 21 22 23 24 25 26 27 28 29 30 31 32 33 34 35 36 37 38 39 40 41 42 43 44 45 46 47 48 49 50
000
ASUS43 KLSX 191307
RWRMO

WEATHER SUMMARY FOR MISSOURI
NATIONAL WEATHER SERVICE SPRINGFIELD MO
800 AM CDT FRI SEP 19 2014

NOTE: "FAIR" INDICATES FEW OR NO CLOUDS BELOW 12,000 FEET WITH NO
       SIGNIFICANT WEATHER AND/OR OBSTRUCTIONS TO VISIBILITY.
       CURRENT SKY AND/OR WEATHER CONDITIONS ARE NOT AVAILABLE FOR
       CHILLICOTHE AND FARMINGTON.

MOZ001>031-035>038-043-044-053-054-191400-
...NORTHERN AND WESTERN MISSOURI...

CITY           SKY/WX    TMP DP  RH WIND       PRES   REMARKS
KANSAS CTY INT CLOUDY    62  61  96 S10       30.03R FOG
KANSAS C DTWN  CLOUDY    64  61  90 S6        30.03R
LEE`S SUMMIT   CLOUDY    61  60  97 S5        30.05R FOG
ST JOSEPH      CLOUDY    62  61  96 SE8       30.02R FOG
CHILLICOTHE      N/A     60  59  96 S3        30.08R

$$
MOZ066>068-077>081-088>096-101>105-191400-
...SOUTHWEST MISSOURI...

CITY           SKY/WX    TMP DP  RH WIND       PRES   REMARKS
SPRINGFIELD    SUNNY     62  59  90 SE7       30.05R FOG
JOPLIN         SUNNY     64  61  90 SE7       30.03R

$$
MOZ032>034-039>042-045>050-055>058-069>072-191400-
...CENTRAL MISSOURI...

CITY           SKY/WX    TMP DP  RH WIND       PRES   REMARKS
COLUMBIA       SUNNY     58  55  90 SE5       30.08R
JEFFERSON CITY SUNNY     54  54 100 CALM      30.08R FOG
ROLLA          SUNNY     57  55  93 SE9       30.07R FOG
SEDALIA        FOG       61  60  97 SE7       30.06S VSB 1/2
WHITEMAN AFB   CLOUDY    61  60  98 S6        30.05R FOG
OSAGE BEACH    SUNNY     55  54  94 CALM      30.07R

$$
MOZ051-052-059>065-191400-
...EAST CENTRAL MISSOURI...

CITY           SKY/WX    TMP DP  RH WIND       PRES   REMARKS
ST LOUIS INTL  MOSUNNY   59  54  83 E5        30.11R
SPIRIT OF STL  MOSUNNY   55  53  93 CALM      30.09R
ST CHARLES     SUNNY     56  55  97 E3        30.10R FOG

$$
MOZ072>076-082>087-097>100-106>115-191400-
...SOUTH CENTRAL AND SOUTHEAST MISSOURI...

CITY           SKY/WX    TMP DP  RH WIND       PRES   REMARKS
CAPE GIRARDEAU SUNNY     59  57  93 CALM      30.07S FOG
FARMINGTON     SUNNY     55  54  94 CALM      30.11R
POPLAR BLUFF   SUNNY     60  54  80 NE3       30.06R
WEST PLAINS    SUNNY     58  55  90 NE3       30.09R FOG

$$



USA.gov is the U.S. government's official web portal to all federal, state and local government web resources and services.